EHI
0 0 0 0 0 0 0 0 0 0 0 0 0 0 0 0 0 0 0 0 0 0 0 0 0 0 0 0 0 0 0 0 0 0 0 0 0 0 0 0 0 0 0 0
0 0 0 0 0 0 0 0 0 0 0 0 0 0 0 0 0 0 0 0 0 0 0 0 0 0 0 0 0 0 0 0 0 0 0 0 0 0 0 0 0 0 0 0
0 0 0 0 0 0 0 0 0 0 0 0 0 0 0 0 0 0 0 0 0 0 0 0 0 0 0 0 0 0 0 0 0 0 0 0 0 0 0 0 0 0 0 0
0 0 0 0 0 0 0 0 0 0 0 0 0 0 0 0 0 0 0 0 0 0 0 0 0 0 0 0 0 0 0 0 0 0 0 0 0 0 0 0 0 0 0 0
0 0 0 0 0 0 0 0 0 0 0 0 0 0 0 0 0 0 0 0 0 0 0 0 0 0 0 0 0 0 0 0 0 0 0 0 0 0 0 0 0 0 0 0
0 0 0 0 0 0 0 0 0 0 0 0 0 0 0 0 0 0 0 0 0 0 0 0 0 0 0 0 0 0 0 0 0 0 0 0 0 0 0 0 0 0 0 0
0 0 0 0 0 0 0 0 0 0 0 0 0 0 0 0 0 0 0 0 0 0 0 0 0 0 0 0 0 0 0 0 0 0 0 0 0 0 0 0 0 0 0 0
0 0 0 0 0 0 0 0 0 0 0 0 0 0 0 0 0 0 0 0 0 0 0 0 0 0 0 0 0 0 0 0 0 0 0 0 0 0 0 0 0 0 0 0
0 0 0 0 0 0 0 0 0 0 0 0 0 0 0 0 0 0 0 0 0 0 0 0 0 0 0 0 0 0 0 0 0 0 0 0 0 0 0 0 0 0 0 0
0 0 0 0 0 0 0 0 0 0 0 0 0 0 0 0 0 0 0 0 0 0 0 0 0 0 0 0 0 0 0 0 0 0 0 0 0 0 0 0 0 0 0 0
0 0 0 0 0 0 0 0 0 0 0 0 0 0 0 0 0 0 0 0 0 0 0 0 0 0 0 0 0 0 0 0 0 0 0 0 0 0 0 0 0 0 0 0
0 0 0 0 0 0 0 0 0 0 0 0 0 0 0 0 0 0 0 0 0 0 0 0 0 0 0 0 0 0 0 0 0 0 0 0 0 0 0 0 0 0 0 0
0 0 0 0 0 0 0 0 0 0 0 0 0 0 0 0 0 0 0 0 0 0 0 0 0 0 0 0 0 0 0 0 0 0 0 0 0 0 0 0 0 0 0 0
0 0 0 0 0 0 0 0 0 0 0 0 0 0 0 0 0 0 0 0 0 0 0 0 0 0 0 0 0 0 0 0 0 0 0 0 0 0 0 0 0 0 0 0
0 0 0 0 0 0 0 0 0 0 0 0 0 0 0 0 0 0 0 0 0 0 0 0 0 0 0 0 0 0 0 0 0 0 0 0 0 0 0 0 0 0 0 0
0 0 0 0 0 0 0 0 0 0 0 0 0 0 0 0 0 0 0 0 0 0 0 0 0 0 0 0 0 0 0 0 0 0 0 0 0 0 0 0 0 0 0 0
0 0 0 0 0 0 0 0 0 0 0 0 0 0 0 0 0 0 0 0 0 0 0 0 0 0 0 0 0 0 0 0 0 0 0 0 0 0 0 0 0 0 0 0
0 0 0 0 0 0 0 0 0 0 0 0 0 0 0 0 0 0 0 0 0 0 0 0 0 0 0 0 0 0 0 0 0 0 0 0 0 0 0 0 0 0 0 0
0 0 0 0 0 0 0 0 0 0 0 0 0 0 0 0 0 0 0 0 0 0 0 0 0 0 0 0 0 0 0 0 0 0 0 0 0 0 0 0 0 0 0 0
0 0 0 0 0 0 0 0 0 0 0 0 0 0 0 0 0 0 0 0 0 0 0 0 0 0 0 0 0 0 0 0 0 0 0 0 0 0 0 0 0 0 0 0
0 0 0 0 0 0 0 0 0 0 0 0 0 0 0 0 0 0 0 0 0 0 0 0 0 0 0 0 0 0 0 0 0 0 0 0 0 0 0 0 0 0 0 0
0 0 0 0 0 0 0 0 0 0 0 0 0 0 0 0 0 0 0 0 0 0 0 0 0 0 0 0 0 0 0 0 0 0 0 0 0 0 0 0 0 0 0 0
0 0 0 0 0 0 0 0 0 0 0 0 0 0 0 0 0 0 0 0 0 0 0 0 0 0 0 0 0 0 0 0 0 0 0 0 0 0 0 0 0 0 0 0
0 0 0 0 0 0 0 0 0 0 0 0 0 0 0 0 0 0 0 0 0 0 0 0 0 0 0 0 0 0 0 0 0 0 0 0 0 0 0 0 0 0 0 0
0 0 0 0 0 0 0 0 0 0 0 0 0 0 0 0 0 0 0 0 0 0 0 0 0 0 0 0 0 0 0 0 0 0 0 0 0 0 0 0 0 0 0 0
0 0 0 0 0 0 0 0 0 0 0 0 0 0 0 0 0 0 0 0 0 0 0 0 0 0 0 0 0 0 0 0 0 0 0 0 0 0 0 0 0 0 0 0
0 0 0 0 0 0 0 0 0 0 0 0 0 0 0 0 0 0 0 0 0 0 0 0 0 0 0 0 0 0 0 0 0 0 0 0 0 0 0 0 0 0 0 0
Wind_Speed
4 4 3 5 8 7 9 9 9 9 9 9 6 5 4 3 2 1 1 1 1 1 1 2 2 2 3 3 3 3 3 3 3 3 3 3 2 2 2 2 3 3 3 3
3 3 4 7 9 9 9 7 8 7 10 7 4 2 2 2 2 2 2 3 2 2 2 2 2 3 3 3 3 3 3 3 3 3 3 3 3 2 2 3 3 3 3 3
3 3 3 8 8 9 6 6 8 10 9 3 2 4 5 5 4 4 4 3 3 3 3 3 3 3 3 3 3 3 3 4 4 4 3 3 3 3 3 3 3 3 3 3
1 1 6 7 2 5 6 6 7 5 4 4 5 5 4 4 4 4 4 3 3 3 3 3 2 3 3 3 3 3 4 4 4 4 4 4 3 3 3 3 3 3 4 4
2 3 8 6 3 3 4 5 5 7 6 4 2 2 3 3 4 4 3 3 3 3 3 2 3 3 3 3 3 3 4 4 4 4 4 4 4 4 3 3 3 3 4 4
3 3 7 6 2 1 2 5 3 4 5 4 1 2 5 2 1 2 2 2 2 2 2 2 3 2 2 3 3 4 4 5 5 4 4 4 4 4 3 3 3 4 4 4
5 5 8 5 2 2 3 6 2 2 3 3 4 6 4 2 2 2 2 2 1 1 2 3 3 2 3 3 4 5 5 5 4 4 4 4 3 3 3 3 3 4 4 4
5 5 9 3 3 5 5 2 1 1 2 2 3 3 2 2 2 1 1 1 1 1 2 3 2 2 3 4 5 4 4 4 4 4 3 3 3 3 3 3 3 4 4 4
7 7 4 3 5 3 2 2 2 2 2 2 2 3 2 2 2 2 2 1 1 2 3 3 3 2 4 5 4 4 4 4 4 4 3 3 3 3 3 3 3 3 3 4
3 6 4 4 3 2 2 3 3 3 3 3 3 3 3 2 2 2 2 2 1 1 2 4 3 3 4 4 4 3 4 4 4 3 3 3 3 3 3 3 3 4 4 4
5 6 4 3 4 3 3 3 2 2 2 3 3 3 3 2 2 2 2 2 2 2 3 4 4 4 4 4 3 3 3 3 3 3 3 3 3 3 3 4 4 4 4 3
6 5 4 5 3 2 3 3 3 2 2 2 3 3 2 2 2 2 2 2 2 3 3 4 4 4 4 3 3 3 3 3 3 3 3 3 3 4 5 6 7 8 7 6
5 3 4 4 3 2 3 3 3 3 3 3 2 2 2 2 2 2 2 2 3 3 3 4 3 4 4 4 3 3 3 4 3 3 3 3 3 3 4 5 6 7 6 7
3 2 3 4 3 2 2 2 2 1 2 2 2 1 1 2 2 2 3 3 3 3 3 3 3 4 4 3 3 3 4 4 4 3 3 3 3 3 3 4 4 4 5 6
4 3 4 3 2 1 1 1 0 1 1 1 1 1 2 2 3 3 3 3 2 2 3 3 3 4 4 3 3 4 3 3 3 2 2 3 3 3 3 3 4 4 4 4
3 3 2 3 3 2 1 2 2 3 2 2 2 2 2 2 3 3 2 2 2 3 3 3 4 4 4 3 3 3 3 4 4 2 2 2 2 2 3 3 3 3 3 3
2 3 3 3 4 3 3 4 4 3 3 3 3 2 2 1 2 2 3 2 2 3 3 3 4 4 4 3 3 3 3 3 4 3 2 2 2 2 2 3 3 3 3 4
4 5 4 4 4 4 4 3 3 3 3 3 2 1 1 2 3 3 3 2 2 3 3 3 3 3 3 3 3 2 2 2 2 2 2 2 2 2 2 2 3 3 3 3
2 3 3 3 3 3 3 3 3 2 2 2 2 2 2 3 3 3 2 2 2 3 4 4 5 3 3 4 3 2 2 2 2 2 2 3 3 2 2 2 2 3 2 2
2 1 1 1 1 1 2 2 1 2 2 2 2 2 2 2 2 2 2 2 3 3 4 4 3 2 3 3 4 2 2 2 2 2 2 2 2 2 2 2 2 2 2 2
2 1 1 1 1 1 1 1 2 2 2 2 2 2 3 2 2 1 1 3 3 3 3 4 2 2 3 3 3 2 2 2 2 2 2 2 2 2 2 2 2 2 2 2
1 1 1 1 1 1 1 1 1 1 1 1 1 1 1 1 1 2 3 3 3 4 3 2 2 3 3 3 2 1 2 2 2 2 2 2 2 2 2 2 2 2 2 2
1 1 1 1 1 1 1 1 1 1 1 2 2 2 2 2 2 2 3 2 2 4 3 2 4 5 4 2 1 2 2 2 2 2 2 2 2 2 2 3 3 2 2 2
1 1 1 1 0 0 1 1 1 1 1 1 2 2 2 1 2 2 2 3 4 4 2 3 5 4 3 1 1 2 2 2 2 2 2 2 2 2 2 2 2 2 2 3
1 1 0 0 0 1 2 1 1 1 1 1 2 2 2 1 2 2 2 2 3 3 2 3 4 4 2 2 2 2 2 2 2 2 2 2 2 2 2 2 2 2 2 2
1 1 1 2 2 1 1 1 1 1 1 1 2 1 1 1 1 1 1 2 2 2 2 2 2 3 2 2 2 2 2 3 3 3 3 3 3 3 3 3 3 3 2 2
1 1 0 1 1 1 1 1 1 1 1 1 2 2 1 1 1 1 1 1 1 2 2 2 2 2 2 2 2 2 2 2 2 3 3 3 3 3 3 4 3 3 2 2
Wind_Direction
252 267 234 237 238 220 213 210 212 237 240 253 247 242 238 225 215 211 265 266 249 261 292 312 327 330 327 322 323 323 323 313 303 302 301 301 296 289 286 288 287 280 271 266
279 270 256 264 253 233 231 225 231 250 263 260 260 247 241 225 222 237 251 257 261 274 290 295 299 306 313 314 315 318 313 307 307 308 309 307 301 294 291 289 288 283 275 269
259 299 328 268 237 213 213 210 199 225 242 261 262 242 232 226 227 233 243 250 259 266 264 269 271 282 291 300 307 309 305 305 305 303 303 299 298 296 285 282 285 285 284 279
208 50 242 248 240 202 216 238 218 226 244 237 236 247 241 218 212 233 244 249 260 264 272 277 280 287 290 298 298 297 299 301 301 299 295 295 293 289 284 283 283 281 283 282
166 222 272 282 253 186 197 261 229 221 244 257 270 297 273 220 200 216 230 242 247 250 260 277 281 281 289 296 294 292 291 291 291 290 288 290 289 287 289 290 289 285 283 278
172 199 241 250 243 196 130 273 243 206 233 243 183 244 259 231 236 263 267 257 263 273 274 272 279 281 284 289 291 288 287 286 285 283 282 282 280 284 290 288 283 282 283 279
203 227 259 256 249 127 182 249 250 212 228 212 211 225 250 267 275 267 272 281 281 282 271 270 278 280 276 280 279 285 294 295 294 291 285 281 284 284 287 290 291 287 287 289
182 213 251 225 146 188 223 261 251 242 235 226 237 259 266 251 248 257 289 298 293 288 288 288 280 270 276 278 285 296 300 300 300 297 292 296 296 298 292 287 287 289 293 295
196 217 242 198 206 224 197 224 248 239 243 221 234 255 267 258 257 259 258 268 276 272 292 298 289 270 271 285 299 302 303 303 300 301 301 299 291 292 295 288 281 284 285 287
248 264 261 253 247 253 228 234 246 238 230 207 224 248 257 254 262 270 274 271 278 285 294 298 298 292 280 291 300 299 297 300 304 302 302 302 297 290 287 284 280 279 279 283
248 265 282 268 234 234 236 237 244 247 224 213 209 229 227 238 253 260 275 279 273 267 278 290 299 301 302 300 299 297 295 297 299 298 294 294 293 284 281 271 269 274 271 270
231 230 218 255 252 217 225 242 237 230 247 241 210 214 223 241 250 255 264 272 277 277 282 292 299 301 302 301 298 296 300 300 294 293 289 288 292 299 293 287 293 291 282 276
239 245 231 255 260 232 225 239 240 223 220 236 237 213 216 239 251 259 268 265 264 270 279 287 293 297 301 300 300 293 290 293 290 286 283 286 290 291 297 304 304 302 299 296
256 256 261 249 241 241 231 240 237 237 237 224 223 215 211 240 258 263 266 268 274 282 287 286 290 293 299 299 297 294 290 288 285 272 271 276 283 284 286 294 304 303 306 308
261 244 238 246 245 246 233 208 225 270 262 264 233 224 223 237 259 272 278 284 290 293 292 292 294 298 305 301 297 294 292 284 280 273 272 273 278 283 286 291 295 301 306 306
270 273 250 237 239 242 231 218 229 247 249 245 248 253 251 250 266 281 287 279 280 289 294 296 294 299 306 307 305 301 292 292 296 284 277 280 281 284 289 293 299 302 305 307
230 257 251 248 245 242 231 229 228 236 240 241 246 253 261 277 292 294 295 287 277 282 284 282 291 304 308 304 302 300 296 290 297 295 281 278 277 280 282 286 293 298 300 308
225 239 239 232 230 236 241 237 232 232 235 235 239 239 241 244 258 274 285 296 307 306 294 286 294 306 306 303 303 303 297 295 299 295 291 285 285 283 282 284 291 298 308 315
257 256 255 244 233 223 227 232 235 235 237 223 221 239 249 251 254 266 280 287 289 296 299 305 312 320 306 301 309 303 308 305 304 301 295 294 301 295 288 290 294 296 301 307
294 288 277 274 257 215 223 235 230 240 241 218 213 233 258 265 261 268 271 264 261 268 283 295 303 304 303 300 312 306 306 309 302 299 299 296 295 295 293 292 292 293 293 293
294 298 299 291 302 287 244 221 207 231 251 225 213 229 248 265 265 254 257 283 287 290 294 300 314 302 297 303 310 308 307 309 307 304 296 291 293 294 295 294 288 288 288 288
280 276 281 282 288 310 305 259 213 222 240 246 241 232 236 261 274 280 261 256 278 302 313 292 295 303 320 325 319 316 315 312 308 306 302 301 299 298 298 298 290 289 290 291
272 263 267 268 259 281 317 313 252 226 233 241 242 238 239 252 250 255 283 284 290 301 312 289 301 317 335 348 332 318 312 308 305 304 303 303 301 299 299 301 298 296 296 297
268 267 275 283 106 96 318 305 303 279 259 266 260 249 242 263 278 261 263 288 303 310 309 302 317 331 350 353 322 311 304 300 298 299 301 302 300 298 296 296 297 298 296 292
256 244 221 149 191 243 256 278 318 316 312 305 294 280 263 243 246 272 288 289 299 322 322 314 326 335 343 319 308 303 299 295 297 301 298 300 299 297 297 296 296 295 292 290
240 241 243 235 233 237 241 226 232 265 274 300 308 304 302 294 274 277 287 296 303 322 330 320 318 323 320 312 308 306 303 306 313 310 299 295 292 291 292 293 291 286 285 284
275 264 269 293 281 248 229 220 225 251 250 244 278 290 295 298 300 303 306 316 320 321 319 319 319 315 313 313 311 308 306 305 304 302 299 293 289 284 285 285 285 286 286 284